"America/Chicago Time","Lifetime Energy (kWh)","Power (W)","AC Volts RMS (V) ","AC Amps RMS (mA)","Grid Frequency (Hz)","Inverter Temperature (C)"
"04/09/12 12:26:29","49.076","74.8","215.11","371","60.03","11"
"04/09/12 12:31:30","49.084","54.2","214.44","270","60.0","10"
"04/09/12 12:36:29","49.088","44.2","213.9","336","60.0","9"
"04/09/12 12:41:29","49.0917","42.3","214.39","385","60.0","9"
"04/09/12 12:46:30","49.0953","49.5","215.04","217","60.03","9"
"04/09/12 12:51:31","49.0998","69.1","215.44","287","60.03","8"
"04/09/12 12:56:30","49.103","51.2","215.5","331","60.03","8"
"04/09/12 13:01:29","49.1071","58.5","215.59","400","60.0","8"
"04/09/12 13:06:30","49.1116","58.0","215.03","423","60.0","8"
"04/09/12 13:11:30","49.1153","47.9","214.25","193","60.0","8"
"04/09/12 13:16:29","49.1184","36.7","214.59","346","60.03","7"
"04/09/12 13:21:29","49.1234","65.2","214.88","328","60.03","8"
"04/09/12 13:26:29","49.1281","32.3","214.14","324","60.03","8"
"04/09/12 13:31:29","49.1308","48.9","214.68","140","60.03","7"
"04/09/12 13:36:30","49.1341","47.7","215.17","361","60.03","7"
"04/09/12 13:41:30","49.1375","38.1","214.66","287","60.0","7"
"04/09/12 13:46:31","49.1401","51.0","214.16","282","60.03","7"
"04/09/12 13:51:29","49.1432","25.4","214.29","13","60.0","7"
"04/09/12 13:56:29","49.1454","36.1","214.9","114","60.03","7"
"04/09/12 14:01:29","49.1466","16.6","214.16","97","60.0","7"
"04/09/12 14:06:30","49.1479","13.9","214.64","136","60.03","6"
"04/09/12 14:11:30","49.149","13.7","214.61","3","60.03","6"
"04/09/12 14:16:29","49.1498","11.6","214.28","43","60.03","6"
"04/09/12 14:21:30","49.1506","8.8","214.93","200","60.03","6"
"04/09/12 14:26:30","49.1513","13.9","214.05","4","59.96","6"
"04/09/12 14:31:31","49.1519","15.2","214.49","3","60.03","6"
"04/09/12 14:36:29","49.1537","34.9","214.6","241","60.03","6"
"04/09/12 14:41:30","49.1557","12.5","214.09","25","60.03","6"
"04/09/12 14:46:30","49.1579","30.6","214.01","80","60.0","6"
"04/09/12 14:51:29","49.1607","67.8","214.88","366","60.0","6"
"04/09/12 14:56:30","49.1667","109.9","216.19","522","60.03","6"
"04/09/12 15:01:30","49.1734","65.2","215.91","329","60.03","7"
"04/09/12 15:06:30","49.1794","71.6","216.1","354","60.07","7"
"04/09/12 15:11:30","49.1848","41.4","215.86","391","60.0","7"
"04/09/12 15:16:31","49.19","61.2","215.85","312","60.03","8"
"04/09/12 15:21:30","49.1964","161.3","217.95","731","60.0","8"
"04/09/12 15:26:30","49.202","32.6","214.52","136","60.0","8"
"04/09/12 15:31:31","49.2052","70.8","215.79","352","60.03","7"
"04/09/12 15:36:29","49.2108","53.5","215.68","94","60.0","7"
"04/09/12 15:41:29","49.2144","38.6","214.44","263","60.0","7"
"04/09/12 15:46:29","49.2166","33.8","214.79","147","60.03","7"
"04/09/12 15:51:29","49.2186","33.3","214.42","200","60.03","6"
"04/09/12 15:56:29","49.2209","33.5","214.26","37","60.03","6"
"04/09/12 16:01:30","49.2224","29.5","213.97","203","60.03","6"
"04/09/12 16:06:30","49.2242","31.3","214.73","295","60.07","6"
"04/09/12 16:11:30","49.2268","53.2","214.87","108","60.0","6"
"04/09/12 16:16:29","49.2293","17.4","214.57","183","60.03","6"
"04/09/12 16:21:30","49.23","13.9","213.99","184","60.03","6"
"04/09/12 16:26:29","49.2319","38.4","214.7","114","60.03","6"
"04/09/12 16:31:30","49.2347","28.0","214.45","96","60.0","6"
"04/09/12 16:36:30","49.2369","36.6","214.52","119","60.03","6"
"04/09/12 16:41:29","49.2391","29.8","214.08","28","60.0","6"
"04/09/12 16:46:29","49.2412","32.1","214.05","88","60.03","6"
"04/09/12 16:51:30","49.2431","24.0","214.31","46","60.03","6"
"04/09/12 16:56:30","49.2451","35.4","215.04","240","60.03","6"
"04/09/12 17:01:30","49.248","41.5","215.23","255","60.07","6"
"04/09/12 17:06:29","49.2511","39.3","214.93","215","60.03","6"
"04/09/12 17:11:29","49.2535","22.7","214.37","38","60.03","6"
"04/09/12 17:16:30","49.2558","27.2","214.26","179","60.03","6"
"04/09/12 17:21:30","49.2579","36.5","214.2","315","60.03","6"
"04/09/12 17:26:29","49.2597","25.1","214.32","26","60.0","6"
"04/09/12 17:31:30","49.2614","22.3","213.85","44","60.03","6"
"04/09/12 17:36:30","49.2629","16.9","213.65","20","60.03","6"
"04/09/12 17:41:30","49.2641","11.5","213.71","8","60.03","6"
"04/09/12 17:46:30","49.2652","13.0","213.39","20","60.03","6"
"04/09/12 17:51:29","49.2662","15.3","213.19","6","60.03","6"
"04/09/12 17:56:29","49.2671","13.1","212.91","33","60.03","6"
"04/09/12 18:01:29","49.2675","0.0","213.82","0","60.03","6"
"04/09/12 18:06:29","49.268","6.2","213.95","181","60.07","6"
"04/09/12 18:11:29","49.2687","0.0","213.38","0","60.03","6"
"04/09/12 18:16:31","49.2693","0.0","213.73","0","60.0","6"
"04/09/12 18:21:30","49.2696","0.0","213.3","0","60.0","6"
"04/09/12 18:26:29","49.27","0.0","213.52","0","60.0","6"
"04/10/12 06:46:33","49.2702","13.7","213.69","19","60.0","2"
"04/10/12 06:51:31","49.2706","0.0","213.21","92","60.03","2"
"04/10/12 06:56:30","49.2712","11.5","213.32","3","60.03","2"
"04/10/12 07:01:32","49.272","15.1","211.98","0","60.0","2"
"04/10/12 07:06:29","49.273","12.1","212.83","11","60.03","3"
"04/10/12 07:11:29","49.2743","10.5","213.26","4","60.0","3"
"04/10/12 07:16:31","49.276","25.2","213.41","67","60.0","3"
"04/10/12 07:21:30","49.2778","37.9","213.15","269","60.03","4"
"04/10/12 07:26:29","49.28","26.8","213.85","70","60.03","4"
"04/10/12 07:31:30","49.2825","37.8","212.47","149","60.0","4"
"04/10/12 07:36:30","49.2854","44.8","213.37","318","60.03","4"
"04/10/12 07:41:31","49.2886","38.6","212.8","277","60.03","4"
"04/10/12 07:46:29","49.2922","51.7","213.81","385","60.07","5"
"04/10/12 07:51:30","49.296","52.6","214.14","165","60.03","5"
"04/10/12 07:56:30","49.3003","68.7","214.18","381","60.0","5"
"04/10/12 08:01:30","49.3049","75.5","214.16","364","60.03","6"
"04/10/12 08:06:31","49.3099","65.5","214.68","331","60.03","6"
"04/10/12 08:11:30","49.3151","71.3","213.97","356","60.03","6"
"04/10/12 08:16:31","49.3208","75.9","214.45","376","60.03","6"
"04/10/12 08:21:31","49.3268","80.0","214.72","393","60.03","6"
"04/10/12 08:26:29","49.3332","84.7","214.64","415","60.0","6"
"04/10/12 08:31:30","49.34","88.5","215.12","431","60.03","6"
"04/10/12 08:36:31","49.347","92.9","215.23","448","60.0","6"
"04/10/12 08:41:30","49.3544","96.8","215.03","469","60.0","6"
"04/10/12 08:46:30","49.362","95.8","215.15","461","60.03","7"
"04/10/12 08:51:30","49.3697","105.0","215.28","500","60.0","7"
"04/10/12 08:56:30","49.3781","108.2","214.6","517","60.03","7"
"04/10/12 09:01:31","49.3864","111.6","215.59","526","60.0","8"
"04/10/12 09:06:29","49.3951","114.0","215.7","537","60.0","8"
"04/10/12 09:11:30","49.4032","107.1","215.02","511","60.0","8"
"04/10/12 09:16:31","49.4116","107.2","215.33","511","60.03","8"
"04/10/12 09:21:31","49.4202","115.9","216.07","544","60.03","8"
"04/10/12 09:26:31","49.4299","128.7","216.57","598","60.0","8"
"04/10/12 09:31:30","49.4402","134.3","216.96","625","60.0","9"
"04/10/12 09:36:30","49.4506","137.5","217.33","634","60.07","9"
"04/10/12 09:41:30","49.4586","46.6","214.88","402","60.0","9"
"04/10/12 09:46:30","49.462","38.7","214.65","205","60.03","8"
"04/10/12 09:51:30","49.4655","45.7","214.26","393","60.0","7"
"04/10/12 09:56:31","49.4695","48.2","214.31","90","60.03","7"
"04/10/12 10:01:29","49.4734","47.2","213.57","359","60.0","7"
"04/10/12 10:06:31","49.4775","63.4","213.27","187","60.03","6"
"04/10/12 10:11:29","49.4815","52.2","214.91","86","60.0","6"
"04/10/12 10:16:30","49.4858","73.4","213.86","235","60.0","6"
"04/10/12 10:21:30","49.4902","54.2","213.33","327","60.0","6"
"04/10/12 10:26:30","49.4951","68.8","214.3","344","60.03","6"
"04/10/12 10:31:30","49.5005","72.6","214.89","357","60.0","6"
"04/10/12 10:36:29","49.5057","64.3","214.53","327","60.03","6"
"04/10/12 10:41:30","49.5106","65.0","214.18","330","60.03","7"
"04/10/12 10:46:30","49.5157","67.1","214.31","335","60.03","7"
"04/10/12 10:51:30","49.521","66.9","215.24","334","60.03","6"
"04/10/12 10:56:31","49.5262","48.2","214.89","447","60.07","7"
"04/10/12 11:01:31","49.5307","56.3","215.23","327","60.0","7"
"04/10/12 11:06:30","49.5353","65.9","215.12","269","60.0","7"
"04/10/12 11:11:30","49.539","38.6","214.68","369","60.0","7"
"04/10/12 11:16:31","49.5424","37.1","214.51","180","60.03","7"
"04/10/12 11:21:30","49.5453","36.3","214.6","109","60.03","6"
"04/10/12 11:26:31","49.5489","38.3","215.26","308","60.0","6"
"04/10/12 11:31:31","49.5529","50.9","214.32","114","60.03","6"
"04/10/12 11:36:30","49.5577","67.6","214.45","341","60.03","6"
"04/10/12 11:41:31","49.5648","111.2","215.4","529","60.0","7"
"04/10/12 11:46:30","49.5743","143.7","216.24","665","60.03","8"
"04/10/12 11:51:30","49.5873","164.6","216.7","752","60.03","9"
"04/10/12 11:56:31","49.6004","165.9","216.86","759","60.03","10"
"04/10/12 12:01:30","49.6127","174.5","216.87","793","60.03","11"
"04/10/12 12:06:31","49.6271","197.4","217.21","888","60.0","11"
"04/10/12 12:11:31","49.6403","140.8","216.16","654","60.03","11"
"04/10/12 12:16:30","49.6544","174.5","216.88","794","60.0","12"
"04/10/12 12:21:30","49.6638","84.8","214.73","412","60.03","11"
"04/10/12 12:26:30","49.6735","117.0","215.82","547","60.03","11"
"04/10/12 12:31:30","49.6797","68.8","213.3","379","60.03","9"
"04/10/12 12:36:30","49.6841","57.6","214.62","275","60.03","9"
"04/10/12 12:41:31","49.6886","57.7","214.34","84","60.0","8"
"04/10/12 12:46:30","49.6915","30.6","213.37","256","60.0","7"
"04/10/12 12:51:29","49.6946","50.8","213.37","149","60.0","6"
"04/10/12 12:56:30","49.6981","51.0","213.22","176","60.0","6"
"04/10/12 13:01:30","49.7024","62.1","215.51","313","60.0","6"
"04/10/12 13:06:30","49.7077","69.9","215.22","351","60.03","6"
"04/10/12 13:11:30","49.7132","70.4","214.89","348","60.0","6"
"04/10/12 13:16:31","49.72","94.8","216.02","454","60.0","6"
"04/10/12 13:21:30","49.7265","79.5","215.23","388","60.03","7"
"04/10/12 13:26:30","49.7327","80.3","215.22","394","60.0","7"
"04/10/12 13:31:30","49.7412","131.8","217.91","608","60.03","8"
"04/10/12 13:36:29","49.7513","116.2","216.83","541","60.03","8"
"04/10/12 13:41:30","49.7585","93.3","216.55","451","60.03","8"
"04/10/12 13:46:31","49.7703","151.0","217.81","686","60.03","9"
"04/10/12 13:51:29","49.7824","160.2","217.75","727","60.03","10"
"04/10/12 13:56:31","49.7942","150.1","218.15","688","60.0","11"
"04/10/12 14:01:31","49.7942","86.4","215.58","421","60.03","9"
"04/10/12 14:06:30","49.8016","77.3","215.37","381","60.0","9"
"04/10/12 14:11:31","49.8103","106.4","216.42","507","60.03","9"
"04/10/12 14:16:31","49.818","87.1","216.07","422","60.0","9"
"04/10/12 14:21:30","49.8261","121.8","216.92","568","60.03","9"
"04/10/12 14:26:30","49.8341","100.9","216.44","476","60.0","9"
"04/10/12 14:31:30","49.8421","125.7","217.16","583","60.0","9"
"04/10/12 14:36:31","49.8507","108.8","216.31","514","60.0","9"
"04/10/12 14:41:31","49.8588","107.6","216.36","509","60.03","9"
"04/10/12 14:46:29","49.8678","99.9","216.6","473","60.03","9"
"04/10/12 14:51:30","49.877","161.7","217.53","739","60.03","10"
"04/10/12 14:56:31","49.8894","182.2","218.18","816","60.03","11"
"04/10/12 15:01:30","49.902","166.5","217.39","756","60.03","12"
"04/10/12 15:06:31","49.9141","152.1","217.19","696","60.0","12"
"04/10/12 15:11:31","49.9256","145.7","217.36","668","60.07","12"
"04/10/12 15:16:30","49.9367","142.2","217.58","652","60.0","12"
"04/10/12 15:21:30","49.9477","140.3","218.06","644","60.03","12"
"04/10/12 15:26:30","49.9585","138.3","218.02","634","60.0","12"
"04/10/12 15:31:30","49.9691","128.4","217.3","598","60.03","12"
"04/10/12 15:36:31","49.979","112.0","217.28","529","60.03","11"
"04/10/12 15:41:30","49.9886","125.3","217.51","584","60.03","11"
"04/10/12 15:46:31","49.9982","125.5","216.85","585","60.03","11"
"04/10/12 15:51:31","50.0079","121.8","216.89","568","60.0","11"
"04/10/12 15:56:30","50.0173","120.2","217.46","560","60.03","11"
"04/10/12 16:01:31","50.0263","112.5","217.24","532","60.03","11"
"04/10/12 16:06:29","50.0346","102.4","216.11","486","60.03","10"
"04/10/12 16:11:30","50.0429","110.4","216.64","522","60.03","10"
"04/10/12 16:16:31","50.0509","81.6","215.94","398","60.0","10"
"04/10/12 16:21:30","50.0585","100.4","216.05","476","60.0","10"
"04/10/12 16:26:30","50.0661","96.0","216.24","456","60.03","10"
"04/10/12 16:31:31","50.0734","92.1","216.32","444","60.03","10"
"04/10/12 16:36:30","50.0802","83.1","216.51","403","60.0","10"
"04/10/12 16:41:31","50.0863","81.5","215.46","396","60.03","9"
"04/10/12 16:46:30","50.0923","78.3","215.49","386","60.03","9"
"04/10/12 16:51:31","50.0984","76.4","215.84","376","60.03","9"
"04/10/12 16:56:31","50.1041","71.6","215.72","353","60.03","9"
"04/10/12 17:01:30","50.1094","66.8","215.23","339","60.07","9"
"04/10/12 17:06:30","50.1145","62.4","215.16","314","60.03","9"
"04/10/12 17:11:30","50.1192","59.5","215.8","256","60.03","9"
"04/10/12 17:16:30","50.1235","43.2","215.05","104","60.03","9"
"04/10/12 17:21:29","50.1275","45.8","214.78","356","60.0","9"
"04/10/12 17:26:30","50.1312","38.4","215.52","322","60.03","9"
"04/10/12 17:31:31","50.1345","46.1","214.27","278","60.03","9"
"04/10/12 17:36:29","50.1375","41.4","213.12","290","60.0","9"
"04/10/12 17:41:30","50.1401","27.6","214.65","123","60.03","9"
"04/10/12 17:46:31","50.1424","24.3","214.88","231","60.03","8"
"04/10/12 17:51:31","50.1444","24.1","214.75","85","60.03","9"
"04/10/12 17:56:30","50.1461","25.0","214.37","198","60.07","9"
"04/10/12 18:01:30","50.1475","23.9","214.23","244","60.03","8"
"04/10/12 18:06:31","50.1488","10.4","214.52","21","60.03","8"
"04/10/12 18:11:30","50.1497","10.8","213.49","7","60.07","8"
"04/10/12 18:16:30","50.1505","12.6","213.67","1","60.03","8"
"04/10/12 18:21:31","50.151","0.0","213.7","0","60.03","8"
"04/10/12 18:26:31","50.1515","10.7","213.69","0","60.03","8"
"04/10/12 18:31:30","50.1517","0.0","213.92","0","60.0","8"
"04/11/12 06:46:31","50.1519","0.0","213.81","0","60.03","2"
"04/11/12 06:51:31","50.1524","16.1","212.73","1","60.03","3"
"04/11/12 06:56:30","50.1533","13.3","211.64","246","60.0","3"
"04/11/12 07:01:30","50.1542","21.2","211.73","249","60.0","4"
"04/11/12 07:06:30","50.1554","17.0","212.11","5","60.03","4"
"04/11/12 07:11:30","50.1568","19.8","213.53","25","60.03","4"
"04/11/12 07:16:31","50.1585","22.3","212.48","34","60.03","5"
"04/11/12 07:21:31","50.1603","24.6","212.69","222","60.03","5"
"04/11/12 07:26:32","50.1626","34.9","213.36","212","60.03","5"
"04/11/12 07:31:30","50.1651","36.0","213.4","245","60.07","5"
"04/11/12 07:36:31","50.1681","45.4","213.58","345","60.03","6"
"04/11/12 07:41:31","50.1713","50.7","213.87","363","60.03","6"
"04/11/12 07:46:32","50.1749","54.3","214.03","97","60.03","6"
"04/11/12 07:51:30","50.1788","42.7","214.1","278","60.03","6"
"04/11/12 07:56:30","50.1832","64.1","214.03","128","60.0","6"
"04/11/12 08:01:31","50.1879","64.7","214.61","328","60.03","7"
"04/11/12 08:06:30","50.1931","74.2","214.76","370","60.03","7"
"04/11/12 08:11:30","50.1989","62.2","214.42","227","60.03","7"
"04/11/12 08:16:30","50.204","89.0","215.14","432","60.03","8"
"04/11/12 08:21:31","50.2104","96.4","215.34","459","60.03","8"
"04/11/12 08:26:31","50.2179","106.4","216.34","505","60.03","9"
"04/11/12 08:31:31","50.2225","41.8","213.25","137","60.0","8"
"04/11/12 08:36:30","50.2254","43.5","213.77","108","60.03","8"
"04/11/12 08:41:31","50.2281","42.7","213.11","313","60.03","8"
"04/11/12 08:46:31","50.231","39.9","213.88","143","60.03","8"
"04/11/12 08:51:31","50.2335","32.5","214.13","179","60.03","8"
"04/11/12 08:56:31","50.2352","21.5","214.17","59","60.03","8"
"04/11/12 09:01:31","50.237","32.5","214.21","156","60.0","8"
"04/11/12 09:06:30","50.2398","30.2","214.6","92","60.0","8"
"04/11/12 09:11:30","50.2416","14.7","213.77","20","60.03","8"
"04/11/12 09:16:30","50.2433","13.1","214.23","16","60.03","8"
"04/11/12 09:21:31","50.2455","31.1","214.39","122","60.0","8"
"04/11/12 09:26:31","50.2483","40.2","214.19","271","60.03","8"
"04/11/12 09:31:31","50.2518","44.8","214.8","310","60.0","8"
"04/11/12 09:36:31","50.2547","37.1","214.96","213","60.03","8"
"04/11/12 09:41:31","50.2585","37.7","215.62","211","60.03","9"
"04/11/12 09:46:31","50.2624","43.4","214.03","376","60.03","9"
"04/11/12 09:51:31","50.2657","32.0","213.24","96","60.03","9"
"04/11/12 09:56:30","50.2687","36.1","214.17","243","60.03","9"
"04/11/12 10:01:30","50.2723","39.7","214.42","387","60.0","9"
"04/11/12 10:06:31","50.2759","49.8","213.36","336","60.0","9"
"04/11/12 10:11:31","50.2795","49.3","214.15","368","60.03","9"
"04/11/12 10:16:30","50.2836","63.7","215.17","326","60.03","9"
"04/11/12 10:21:30","50.2875","43.9","214.37","151","60.0","9"
"04/11/12 10:26:31","50.2919","64.4","215.12","409","60.03","10"
"04/11/12 10:31:30","50.2962","60.6","215.0","287","60.03","10"
"04/11/12 10:36:30","50.2999","64.6","214.84","192","60.03","10"
"04/11/12 10:41:31","50.3043","52.0","215.31","140","60.0","10"
"04/11/12 10:46:32","50.3083","62.1","214.37","309","60.03","10"
"04/11/12 10:51:30","50.3134","91.7","216.38","442","60.0","10"
"04/11/12 10:56:31","50.3187","64.0","215.31","323","60.03","11"
"04/11/12 11:01:31","50.3232","63.5","215.14","260","60.03","10"
"04/11/12 11:06:30","50.3283","65.5","215.58","329","60.03","11"
"04/11/12 11:11:31","50.3346","85.2","216.62","416","60.03","11"
"04/11/12 11:16:31","50.3398","59.6","215.75","325","60.03","11"
"04/11/12 11:21:31","50.3451","77.9","215.61","382","60.03","11"
"04/11/12 11:26:31","50.3521","81.2","216.17","397","60.03","11"
"04/11/12 11:31:31","50.3587","128.7","216.89","600","60.0","11"
"04/11/12 11:36:31","50.3657","63.2","215.65","322","60.03","11"
"04/11/12 11:41:30","50.3703","47.7","215.97","309","60.07","11"
"04/11/12 11:46:31","50.3763","84.1","216.29","408","60.0","11"
"04/11/12 11:51:31","50.3826","78.6","217.17","386","60.03","11"
"04/11/12 11:56:32","50.3886","66.7","215.48","336","60.03","11"
"04/11/12 12:01:32","50.3941","86.8","215.46","424","60.03","11"
"04/11/12 12:06:30","50.4001","71.3","215.36","353","60.03","11"
"04/11/12 12:11:31","50.4052","73.1","215.87","363","60.03","11"
"04/11/12 12:16:31","50.4118","87.2","216.05","424","60.0","11"
"04/11/12 12:21:32","50.4188","76.7","216.57","374","60.03","11"
"04/11/12 12:26:30","50.4249","80.8","215.99","397","60.07","11"
"04/11/12 12:31:30","50.4296","53.0","215.11","244","60.03","11"
"04/11/12 12:36:31","50.4363","65.2","215.13","325","60.0","11"
"04/11/12 12:41:30","50.4436","89.0","216.06","433","60.03","11"
"04/11/12 12:46:31","50.4489","72.5","215.95","360","60.03","11"
"04/11/12 12:51:32","50.4555","83.5","214.59","411","60.0","11"
"04/11/12 12:56:32","50.4615","74.0","216.05","364","60.03","11"
"04/11/12 13:01:31","50.4668","68.9","214.82","348","60.0","11"
"04/11/12 13:06:30","50.4722","76.4","216.27","373","60.0","11"
"04/11/12 13:11:31","50.4776","65.6","215.64","331","60.03","11"
"04/11/12 13:16:31","50.4825","61.8","214.88","315","60.0","11"
"04/11/12 13:21:30","50.4878","68.1","214.91","343","60.03","11"
"04/11/12 13:26:31","50.4929","61.2","215.72","315","60.0","10"
"04/11/12 13:31:32","50.4986","77.2","216.59","382","60.03","10"
"04/11/12 13:36:31","50.5052","109.6","216.15","517","60.03","11"
"04/11/12 13:41:31","50.5118","72.1","215.66","360","60.03","11"
"04/11/12 13:46:30","50.5173","67.4","215.48","341","60.03","11"
"04/11/12 13:51:31","50.5232","73.4","216.35","362","60.03","11"
"04/11/12 13:56:31","50.5285","64.7","214.98","327","60.03","10"
"04/11/12 14:01:31","50.5334","61.3","214.7","309","60.0","10"
"04/11/12 14:06:31","50.5384","68.3","215.54","343","60.03","10"
"04/11/12 14:11:32","50.543","44.2","214.78","112","60.0","11"
"04/11/12 14:16:31","50.5474","57.5","214.77","92","60.03","10"
"04/11/12 14:21:31","50.552","61.2","215.03","316","60.03","10"
"04/11/12 14:26:30","50.5561","57.7","216.39","119","60.0","10"
"04/11/12 14:31:31","50.5609","61.3","215.78","314","60.03","10"
"04/11/12 14:36:30","50.5658","74.0","215.32","400","60.0","11"
"04/11/12 14:41:31","50.5701","51.8","215.8","405","60.03","11"
"04/11/12 14:46:31","50.5746","62.6","215.6","318","60.0","10"
"04/11/12 14:51:30","50.5794","61.1","215.65","310","60.03","11"
"04/11/12 14:56:32","50.584","57.8","214.79","133","60.0","11"
"04/11/12 15:01:30","50.5886","47.4","215.1","175","60.03","10"
"04/11/12 15:06:31","50.5935","61.1","215.9","313","60.03","10"
"04/11/12 15:11:30","50.5987","69.4","215.67","347","60.03","10"
"04/11/12 15:16:31","50.6041","69.0","215.41","348","60.0","10"
"04/11/12 15:21:30","50.6094","72.2","216.22","361","60.03","10"
"04/11/12 15:26:30","50.6148","64.4","215.34","326","60.07","11"
"04/11/12 15:31:31","50.6209","72.9","216.23","363","60.0","11"
"04/11/12 15:36:31","50.6259","43.7","215.2","403","60.03","11"
"04/11/12 15:41:30","50.6317","67.5","215.57","339","59.96","11"
"04/11/12 15:46:31","50.6397","157.1","218.09","715","60.03","12"
"04/11/12 15:51:30","50.6455","67.6","215.26","340","60.0","11"
"04/11/12 15:56:31","50.6493","57.6","214.74","137","60.07","11"
"04/11/12 16:01:30","50.6569","123.9","217.05","578","60.03","11"
"04/11/12 16:06:31","50.6638","105.2","215.88","498","60.0","11"
"04/11/12 16:11:31","50.6723","106.1","216.57","499","60.0","13"
"04/11/12 16:16:32","50.6799","101.5","215.89","484","60.03","13"
"04/11/12 16:21:30","50.6875","96.3","215.98","463","60.0","14"
"04/11/12 16:26:30","50.6949","93.6","216.65","445","60.0","14"
"04/11/12 16:31:30","50.702","89.5","214.9","434","60.03","14"
"04/11/12 16:36:32","50.7089","86.2","215.33","419","60.03","14"
"04/11/12 16:41:31","50.7154","81.7","214.71","401","60.03","15"
"04/11/12 16:46:32","50.7216","78.2","214.67","388","60.0","14"
"04/11/12 16:51:31","50.7275","74.2","214.24","370","60.03","13"
"04/11/12 16:56:31","50.7331","69.5","214.6","352","60.03","14"
"04/11/12 17:01:31","50.7384","65.4","214.65","334","60.07","14"
"04/11/12 17:06:31","50.7433","61.2","214.12","313","60.03","14"
"04/11/12 17:11:31","50.7478","55.6","214.44","385","60.03","14"
"04/11/12 17:16:30","50.7521","54.0","214.42","380","60.03","14"
"04/11/12 17:21:31","50.756","45.1","214.13","372","60.07","13"
"04/11/12 17:26:31","50.7597","39.4","214.39","196","60.03","14"
"04/11/12 17:31:31","50.7629","35.9","214.16","87","60.03","14"
"04/11/12 17:36:32","50.7659","41.5","214.01","308","60.03","14"
"04/11/12 17:41:30","50.7685","28.0","213.67","201","60.0","13"
"04/11/12 17:46:31","50.7709","28.4","213.55","26","60.03","13"
"04/11/12 17:51:31","50.7728","14.8","213.99","135","60.03","13"
"04/11/12 17:56:31","50.7746","15.4","214.15","80","60.03","13"
"04/11/12 18:01:30","50.776","13.7","214.57","160","60.07","13"
"04/11/12 18:06:30","50.7773","11.1","213.65","115","60.03","13"
"04/11/12 18:11:32","50.7783","11.5","213.58","68","60.0","12"
"04/11/12 18:16:31","50.7791","0.0","213.46","0","60.03","12"
"04/11/12 18:21:30","50.7797","0.0","214.17","0","60.03","12"
"04/11/12 18:26:31","50.7802","14.8","213.72","1","60.03","11"
"04/11/12 18:31:31","50.7806","0.0","213.08","0","60.0","11"
"04/11/12 18:36:32","50.7808","0.0","212.83","0","60.03","11"
"04/11/12 18:41:31","50.7808","0.0","213.34","0","60.03","9"
"04/12/12 06:51:33","50.7813","10.8","213.58","1","60.03","0"
"04/12/12 06:56:30","50.782","9.5","213.87","177","60.03","0"
"04/12/12 07:01:30","50.7829","7.8","213.65","280","60.03","1"
"04/12/12 07:06:32","50.784","24.1","213.24","273","60.03","1"
"04/12/12 07:11:31","50.7854","11.2","213.94","228","60.0","2"
"04/12/12 07:16:32","50.787","13.1","214.01","278","60.03","3"
"04/12/12 07:21:30","50.7889","22.1","213.79","232","60.0","3"
"04/12/12 07:26:31","50.7913","33.3","213.96","234","60.03","4"
"04/12/12 07:31:31","50.794","41.6","214.2","291","60.0","4"
"04/12/12 07:36:31","50.797","34.9","213.76","117","60.03","5"
"04/12/12 07:41:31","50.8003","49.0","213.59","315","60.0","5"
"04/12/12 07:46:31","50.8039","54.0","213.27","299","60.03","6"
"04/12/12 07:51:31","50.8078","58.5","214.96","319","60.03","6"
"04/12/12 07:56:32","50.812","45.7","215.26","348","60.0","6"
"04/12/12 08:01:31","50.8166","61.2","215.31","317","60.03","7"